| time (UTC) | temp F | wind direction | speed knots | gust knots | rain 1hr in | rain 24hr in | rain mn in | humidity % | barometer mb |
| 20260901134602 | 72 | 0 | 3.5 | 10.4 | 0.00 | 0.00 | 0.00 | 50 | 1018.5 |
| 20260901133103 | 74 | 360 | 2.6 | 9.6 | 0.00 | 0.00 | 0.00 | 48 | 1018.6 |
| 20260901131554 | 73 | 187 | 0.9 | 9.6 | 0.00 | 0.00 | 0.00 | 49 | 1018.8 |
| 20260901130046 | 72 | 280 | 9.6 | 0.0 | 0.00 | 0.00 | 0.00 | 52 | 1019.0 |
| 20260901124554 | 72 | 360 | 7.0 | 0.0 | 0.00 | 0.00 | 0.00 | 50 | 1019.1 |
| 20260901123054 | 70 | 0 | 0.0 | 8.7 | 0.00 | 0.00 | 0.00 | 56 | 1019.1 |
| 20260901121554 | 70 | 277 | 1.7 | 8.7 | 0.00 | 0.00 | 0.00 | 55 | 1019.2 |
| 20260901120057 | 72 | 0 | 0.0 | 8.7 | 0.00 | 0.00 | 0.00 | 52 | 1019.1 |
| 20260901114555 | 72 | 0 | 0.0 | 9.6 | 0.00 | 0.00 | 0.00 | 53 | 1019.2 |
| 20260901113054 | 70 | 360 | 4.3 | 10.4 | 0.00 | 0.00 | 0.00 | 54 | 1019.3 |
| 20260901111557 | 70 | 279 | 2.6 | 8.7 | 0.00 | 0.00 | 0.00 | 55 | 1019.4 |
| 20260901110059 | 70 | 274 | 7.0 | 0.0 | 0.00 | 0.00 | 0.00 | 54 | 1019.4 |
| 20260901104557 | 72 | 235 | 0.9 | 7.8 | 0.00 | 0.00 | 0.00 | 51 | 1019.2 |
| 20260901103049 | 71 | 360 | 0.0 | 7.8 | 0.00 | 0.00 | 0.00 | 53 | 1019.3 |
| 20260901101550 | 68 | 0 | 0.9 | 0.9 | 0.00 | 0.00 | 0.00 | 59 | 1019.5 |
| 20260901100059 | 70 | 271 | 3.5 | 7.0 | 0.00 | 0.00 | 0.00 | 55 | 1019.6 |
| 20260901094551 | 71 | 288 | 4.3 | 0.0 | 0.00 | 0.00 | 0.00 | 54 | 1019.6 |
| 20260901093047 | 69 | 281 | 1.7 | 9.6 | 0.00 | 0.00 | 0.00 | 56 | 1019.6 |
| 20260901091603 | 68 | 0 | 0.0 | 0.0 | 0.00 | 0.00 | 0.00 | 57 | 1019.6 |
| 20260901090059 | 67 | 272 | 1.7 | 7.8 | 0.00 | 0.00 | 0.00 | 57 | 1019.6 |
| 20260901084550 | 67 | 272 | 0.0 | 7.8 | 0.00 | 0.00 | 0.00 | 62 | 1019.6 |
| 20260901083057 | 67 | 0 | 0.0 | 3.5 | 0.00 | 0.00 | 0.00 | 59 | 1019.6 |
| 20260901081556 | 66 | 0 | 0.0 | 2.6 | 0.00 | 0.00 | 0.00 | 62 | 1019.5 |
| 20260901080104 | 66 | 0 | 0.0 | 4.3 | 0.00 | 0.00 | 0.00 | 64 | 1019.5 |
| 20260901074553 | 65 | 0 | 0.0 | 1.7 | 0.00 | 0.00 | 0.00 | 65 | 1019.5 |
| 20260901073052 | 64 | 0 | 0.0 | 0.0 | 0.00 | 0.00 | 0.00 | 68 | 1019.4 |
| 20260901071605 | 62 | 0 | 0.0 | 0.0 | 0.00 | 0.00 | 0.00 | 69 | 1019.3 |
| 20260901064608 | 59 | 0 | 0.0 | 0.0 | 0.00 | 0.00 | 0.00 | 75 | 1019.3 |
| 20260901063100 | 57 | 0 | 0.0 | 0.0 | 0.00 | 0.00 | 0.00 | 77 | 1019.3 |
| 20260901061601 | 56 | 0 | 0.0 | 0.0 | 0.00 | 0.00 | 0.00 | 77 | 1019.3 |
| 20260901060051 | 55 | 0 | 0.0 | 0.0 | 0.00 | 0.00 | 0.00 | 81 | 1019.3 |
| 20260901054556 | 52 | 0 | 0.0 | 0.0 | 0.00 | 0.00 | 0.00 | 82 | 1019.3 |
| 20260901053114 | 51 | 0 | 0.0 | 0.0 | 0.00 | 0.00 | 0.00 | 81 | 1019.2 |
| 20260901051555 | 51 | 0 | 0.0 | 0.0 | 0.00 | 0.00 | 0.00 | 81 | 1019.2 |
| 20260901050048 | 51 | 0 | 0.0 | 0.0 | 0.00 | 0.00 | 0.00 | 80 | 1019.2 |
| 20260901044556 | 51 | 0 | 0.0 | 0.0 | 0.00 | 0.00 | 0.00 | 78 | 1019.2 |
| 20260901043055 | 51 | 0 | 0.0 | 0.0 | 0.00 | 0.00 | 0.00 | 78 | 1019.1 |
| 20260901041553 | 51 | 0 | 0.0 | 0.0 | 0.00 | 0.00 | 0.00 | 77 | 1019.1 |
| 20260901040104 | 51 | 0 | 0.0 | 0.0 | 0.00 | 0.00 | 0.00 | 76 | 1019.2 |
| 20260901034558 | 51 | 0 | 0.0 | 0.0 | 0.00 | 0.00 | 0.00 | 76 | 1019.1 |
| 20260901033055 | 52 | 0 | 0.0 | 0.0 | 0.00 | 0.00 | 0.00 | 75 | 1019.1 |
| 20260901031554 | 52 | 0 | 0.0 | 0.0 | 0.00 | 0.00 | 0.00 | 75 | 1019.0 |
| 20260901030048 | 52 | 0 | 0.0 | 0.0 | 0.00 | 0.00 | 0.00 | 75 | 1019.2 |
| 20260901024602 | 52 | 0 | 0.0 | 0.0 | 0.00 | 0.12 | 0.00 | 74 | 1019.2 |
| 20260901023057 | 52 | 0 | 0.0 | 0.0 | 0.00 | 0.12 | 0.00 | 72 | 1019.2 |
| 20260901021557 | 53 | 0 | 0.0 | 0.0 | 0.00 | 0.12 | 0.00 | 72 | 1019.2 |
| 20260901020053 | 53 | 0 | 0.0 | 0.0 | 0.00 | 0.12 | 0.00 | 71 | 1019.1 |
| 20260901014552 | 54 | 0 | 0.0 | 0.0 | 0.00 | 0.12 | 0.00 | 71 | 1019.1 |
| 20260901013104 | 54 | 0 | 0.0 | 0.0 | 0.00 | 0.12 | 0.00 | 70 | 1019.0 |
| 20260901011554 | 55 | 0 | 0.0 | 0.0 | 0.00 | 0.12 | 0.00 | 69 | 1018.8 |
| 20260901010056 | 55 | 0 | 0.0 | 0.0 | 0.00 | 0.12 | 0.00 | 68 | 1018.8 |
| 20260901004603 | 56 | 0 | 0.0 | 0.0 | 0.00 | 0.12 | 0.00 | 68 | 1018.7 |
| 20260901003106 | 56 | 0 | 0.0 | 0.0 | 0.00 | 0.12 | 0.00 | 68 | 1018.8 |
| 20260901001555 | 57 | 0 | 0.0 | 0.0 | 0.00 | 0.12 | 0.00 | 66 | 1018.7 |
| 20260901000053 | 57 | 0 | 0.0 | 0.0 | 0.00 | 0.12 | 0.00 | 66 | 1018.6 |
| 20260831234547 | 58 | 0 | 0.0 | 0.0 | 0.00 | 0.12 | 0.00 | 66 | 1018.5 |
| 20260831233058 | 58 | 0 | 0.0 | 0.0 | 0.00 | 0.12 | 0.00 | 65 | 1018.7 |
| 20260831231612 | 59 | 0 | 0.0 | 0.0 | 0.00 | 0.12 | 0.00 | 65 | 1018.8 |
| 20260831230051 | 59 | 0 | 0.0 | 0.0 | 0.00 | 0.12 | 0.00 | 65 | 1018.9 |
| 20260831224555 | 59 | 0 | 0.0 | 0.0 | 0.00 | 0.12 | 0.00 | 64 | 1018.9 |
| 20260831223101 | 59 | 0 | 0.0 | 0.0 | 0.00 | 0.12 | 0.00 | 64 | 1018.9 |
| 20260831221547 | 60 | 0 | 0.0 | 0.0 | 0.00 | 0.12 | 0.00 | 62 | 1018.9 |
| 20260831220055 | 61 | 0 | 0.0 | 0.0 | 0.00 | 0.12 | 0.00 | 60 | 1019.0 |
| 20260831214555 | 61 | 0 | 0.0 | 0.0 | 0.00 | 0.12 | 0.12 | 59 | 1018.9 |
| 20260831213058 | 62 | 0 | 0.0 | 0.0 | 0.00 | 0.12 | 0.12 | 57 | 1018.8 |
| 20260831211557 | 62 | 0 | 0.0 | 8.7 | 0.00 | 0.12 | 0.12 | 57 | 1018.8 |
| 20260831210056 | 63 | 360 | 0.9 | 11.3 | 0.00 | 0.12 | 0.12 | 56 | 1018.7 |
| 20260831204554 | 64 | 279 | 3.5 | 9.6 | 0.00 | 0.12 | 0.12 | 56 | 1018.7 |
| 20260831203056 | 64 | 268 | 6.1 | 9.6 | 0.00 | 0.12 | 0.12 | 55 | 1018.5 |
| 20260831201604 | 65 | 249 | 0.9 | 5.2 | 0.00 | 0.12 | 0.12 | 54 | 1018.2 |
| 20260831200058 | 65 | 0 | 0.0 | 6.1 | 0.00 | 0.12 | 0.12 | 54 | 1018.0 |
| 20260831194637 | 66 | 281 | 3.5 | 9.6 | 0.00 | 0.12 | 0.12 | 54 | 1017.7 |
| 20260831193059 | 66 | 360 | 0.0 | 0.9 | 0.00 | 0.12 | 0.12 | 55 | 1017.6 |
| 20260831191601 | 66 | 0 | 0.9 | 7.0 | 0.00 | 0.12 | 0.12 | 54 | 1017.2 |
| 20260831190100 | 66 | 0 | 0.0 | 7.8 | 0.00 | 0.12 | 0.12 | 54 | 1017.0 |
| 20260831184556 | 67 | 0 | 0.0 | 4.3 | 0.00 | 0.12 | 0.12 | 52 | 1016.7 |
| 20260831183052 | 68 | 0 | 0.0 | 5.2 | 0.00 | 0.12 | 0.12 | 51 | 1016.3 |
| 20260831181608 | 68 | 360 | 0.0 | 7.8 | 0.00 | 0.12 | 0.12 | 50 | 1015.9 |
| 20260831180054 | 69 | 360 | 0.9 | 7.0 | 0.00 | 0.12 | 0.12 | 49 | 1015.7 |
| 20260831174556 | 69 | 205 | 3.5 | 13.9 | 0.00 | 0.12 | 0.12 | 48 | 1015.5 |
| 20260831173055 | 70 | 272 | 5.2 | 7.8 | 0.00 | 0.12 | 0.12 | 47 | 1015.4 |
| 20260831171555 | 70 | 360 | 7.0 | 13.9 | 0.00 | 0.12 | 0.12 | 45 | 1015.2 |
| 20260831170058 | 71 | 276 | 5.2 | 13.9 | 0.00 | 0.12 | 0.12 | 46 | 1015.1 |
| 20260831164556 | 71 | 232 | 3.5 | 11.3 | 0.00 | 0.12 | 0.12 | 44 | 1015.0 |
| 20260831163052 | 72 | 254 | 5.2 | 11.3 | 0.00 | 0.12 | 0.12 | 43 | 1015.1 |
| 20260831161600 | 73 | 300 | 6.1 | 11.3 | 0.00 | 0.12 | 0.12 | 45 | 1015.0 |
| 20260831160055 | 73 | 209 | 1.7 | 9.6 | 0.00 | 0.12 | 0.12 | 43 | 1014.9 |
| 20260831154616 | 74 | 204 | 0.9 | 16.5 | 0.00 | 0.12 | 0.12 | 43 | 1014.7 |
| 20260831153118 | 74 | 80 | 0.9 | 13.0 | 0.00 | 0.12 | 0.12 | 44 | 1014.8 |
| 20260831151603 | 74 | 360 | 4.3 | 13.0 | 0.00 | 0.12 | 0.12 | 43 | 1015.0 |
| 20260831150055 | 71 | 360 | 3.5 | 11.3 | 0.00 | 0.12 | 0.12 | 46 | 1015.0 |
| 20260831144626 | 74 | 360 | 8.7 | 15.6 | 0.00 | 0.12 | 0.12 | 45 | 1015.0 |
| 20260831143050 | 74 | 313 | 1.7 | 0.0 | 0.00 | 0.12 | 0.12 | 44 | 1015.1 |
| 20260831141557 | 74 | 360 | 4.3 | 17.4 | 0.00 | 0.12 | 0.12 | 44 | 1015.0 |
| 20260831140054 | 74 | 241 | 5.2 | 17.4 | 0.00 | 0.12 | 0.12 | 45 | 1015.0 |